GW4851 Weather Reports


time (UTC)temp
C
wind
direction
speed
KPH
gust
KPH
rain 1hr
cm
rain 24hr
cm
rain mn
cm
humidity
%
barometer
mb
20260503200443 15 318 12.9 20.9 0.00 0.00 0.00 30 1015.8
20260503195940 15 58 3.2 17.7 0.00 0.00 0.00 31 1016.1
20260503195437 16 336 4.8 11.3 0.00 0.00 0.00 34 1015.9
20260503194933 15 62 3.2 22.5 0.00 0.00 0.00 30 1015.9
20260503194430 15 352 8.0 17.7 0.00 0.00 0.00 32 1016.0
20260503193926 14 261 14.5 25.7 0.00 0.00 0.00 31 1016.3
20260503193421 14 307 16.1 20.9 0.00 0.00 0.00 32 1016.1
20260503192917 14 262 8.0 14.5 0.00 0.00 0.00 32 1016.2
20260503192414 15 315 9.7 27.4 0.00 0.00 0.00 33 1016.3
20260503191909 15 2 6.4 9.7 0.00 0.00 0.00 33 1016.4
20260503191408 14 50 1.6 9.7 0.00 0.00 0.00 34 1016.4
20260503190903 14 326 12.9 20.9 0.00 0.00 0.00 31 1016.4
20260503190401 14 23 8.0 17.7 0.00 0.00 0.00 34 1016.4
20260503185857 13 304 11.3 25.7 0.00 0.00 0.00 31 1016.5
20260503185354 14 271 14.5 17.7 0.00 0.00 0.00 32 1016.6
20260503184854 13 324 9.7 16.1 0.00 0.00 0.00 32 1016.7
20260503184350 14 308 3.2 9.7 0.00 0.00 0.00 32 1016.6
20260503183846 14 300 3.2 11.3 0.00 0.00 0.00 32 1016.9
20260503183343 14 295 4.8 17.7 0.00 0.00 0.00 31 1016.9
20260503182840 13 313 11.3 12.9 0.00 0.00 0.00 33 1016.8
20260503182340 14 346 9.7 20.9 0.00 0.00 0.00 32 1016.7
20260503181836 13 34 1.6 11.3 0.00 0.00 0.00 36 1016.8
20260503181333 13 338 6.4 14.5 0.00 0.00 0.00 31 1016.7
20260503180829 13 339 3.2 4.8 0.00 0.00 0.00 32 1016.8
20260503180328 13 321 6.4 24.1 0.00 0.00 0.00 33 1016.9
20260503175824 13 299 11.3 17.7 0.00 0.00 0.00 31 1016.9
20260503175322 13 3 4.8 24.1 0.00 0.00 0.00 33 1017.1
20260503174817 13 323 3.2 24.1 0.00 0.00 0.00 31 1017.0
20260503174316 13 291 12.9 16.1 0.00 0.00 0.00 33 1017.0
20260503173811 13 10 12.9 22.5 0.00 0.00 0.00 30 1017.3
20260503173307 12 32 14.5 16.1 0.00 0.00 0.00 33 1017.0
20260503172804 12 340 6.4 12.9 0.00 0.00 0.00 34 1017.1
20260503172301 12 19 11.3 20.9 0.00 0.00 0.00 34 1017.3
20260503171757 12 57 12.9 17.7 0.00 0.00 0.00 33 1017.5
20260503171254 12 284 16.1 22.5 0.00 0.00 0.00 36 1017.5
20260503170752 12 329 4.8 6.4 0.00 0.00 0.00 36 1017.5
20260503170248 12 23 14.5 27.4 0.00 0.00 0.00 37 1017.7
20260503160210 10 266 6.4 11.3 0.00 0.00 0.00 45 1018.4
20260503150641 9 314 6.4 17.7 0.00 0.00 0.00 45 1018.7
20260503150136 8 289 6.4 20.9 0.00 0.00 0.00 46 1018.8
20260503131030 7 331 6.4 20.9 0.00 0.00 0.00 54 1018.4
20260503130527 6 340 14.5 20.9 0.00 0.00 0.00 55 1018.6
20260503110418 3 303 0.0 1.6 0.00 0.00 0.00 71 1017.7
20260503090309 3 350 1.6 1.6 0.00 0.00 0.00 71 1016.8
20260503081242 4 306 1.6 1.6 0.00 0.00 0.00 70 1016.7
20260503080737 4 291 1.6 1.6 0.00 0.00 0.00 70 1016.6
20260503080235 4 44 3.2 4.8 0.00 0.00 0.00 70 1016.6
20260503072712 4 350 0.0 3.2 0.00 0.00 0.00 71 1016.3
20260503072208 4 329 0.0 0.0 0.00 0.00 0.00 72 1016.4
20260503071705 4 326 1.6 4.8 0.00 0.00 0.00 69 1016.1
20260503071203 4 301 6.4 9.7 0.00 0.00 0.00 72 1016.1
20260503070659 4 324 0.0 0.0 0.00 0.00 0.00 70 1016.1
20260503070157 4 325 0.0 6.4 0.00 0.00 0.00 69 1016.3
20260503060121 4 347 6.4 6.4 0.00 0.00 0.00 69 1016.0
20260503055113 4 337 3.2 3.2 0.00 0.00 0.00 69 1015.9
20260503054609 4 338 1.6 4.8 0.00 0.00 0.00 70 1015.8
20260503054106 4 354 1.6 6.4 0.00 0.00 0.00 68 1015.9
20260503053604 4 358 3.2 4.8 0.00 0.00 0.00 68 1016.0
20260503053102 4 342 0.0 1.6 0.00 0.00 0.00 69 1016.1
20260503052558 5 39 3.2 3.2 0.00 0.00 0.00 67 1016.1
20260503052055 5 324 1.6 4.8 0.00 0.00 0.00 67 1016.0
20260503051550 5 358 3.2 3.2 0.00 0.00 0.00 67 1016.0
20260503051048 4 302 0.0 1.6 0.00 0.00 0.00 68 1016.2
20260503050543 5 27 0.0 1.6 0.00 0.00 0.00 67 1016.0
20260503050041 5 19 6.4 9.7 0.00 0.00 0.00 68 1016.1
20260503045538 5 342 0.0 1.6 0.00 0.00 0.00 68 1016.2
20260503045035 5 342 1.6 4.8 0.00 0.00 0.00 67 1016.2
20260503044532 5 350 9.7 12.9 0.00 0.00 0.00 68 1016.3
20260503044030 5 6 0.0 0.0 0.00 0.00 0.00 68 1016.2
20260503043525 5 6 1.6 3.2 0.00 0.00 0.00 68 1016.1
20260503043022 5 337 3.2 9.7 0.00 0.00 0.00 67 1016.1
20260503042519 5 69 0.0 3.2 0.00 0.00 0.00 67 1016.2
20260503042016 5 356 4.8 9.7 0.00 0.00 0.00 68 1016.2
20260503041513 5 341 3.2 3.2 0.00 0.00 0.00 67 1016.2
20260503041011 5 39 0.0 3.2 0.00 0.00 0.00 67 1016.1
20260503040508 5 358 1.6 4.8 0.00 0.00 0.00 66 1016.1
20260503040005 5 354 4.8 6.4 0.00 0.00 0.00 65 1015.9
20260503035502 5 27 1.6 3.2 0.00 0.00 0.00 67 1016.2
20260503034959 6 27 0.0 3.2 0.00 0.00 0.00 64 1016.2
20260503034456 5 346 0.0 3.2 0.00 0.00 0.00 64 1016.2
20260503033953 5 346 0.0 3.2 0.00 0.00 0.00 66 1016.2
20260503033450 5 346 0.0 3.2 0.00 0.00 0.00 66 1016.2
20260503032948 6 335 0.0 0.0 0.00 0.00 0.00 66 1016.0
20260503032446 5 10 0.0 1.6 0.00 0.00 0.00 63 1015.9
20260503031943 6 4 0.0 9.7 0.00 0.00 0.00 63 1016.1
20260503031441 6 29 0.0 4.8 0.00 0.00 0.00 62 1016.0
20260503030938 6 354 6.4 6.4 0.00 0.00 0.00 62 1016.0
20260503030434 6 54 4.8 6.4 0.00 0.00 0.00 61 1016.0
20260503025931 6 83 1.6 3.2 0.00 0.00 0.00 64 1016.2
20260503025428 6 83 0.0 1.6 0.00 0.00 0.00 62 1016.2
20260503024926 6 83 1.6 1.6 0.00 0.00 0.00 62 1016.2
20260503024423 6 41 1.6 3.2 0.00 0.00 0.00 61 1016.3
20260503023920 7 40 1.6 3.2 0.00 0.00 0.00 59 1016.2
20260503023417 7 26 3.2 6.4 0.00 0.00 0.00 60 1016.3
20260503022914 7 333 3.2 11.3 0.00 0.00 0.00 60 1016.2
20260503022413 7 50 3.2 4.8 0.00 0.00 0.00 60 1016.3
20260503021909 7 326 8.0 11.3 0.00 0.00 0.00 59 1016.1
20260503021406 7 276 6.4 6.4 0.00 0.00 0.00 60 1016.0
20260503020903 7 332 3.2 14.5 0.00 0.00 0.00 59 1016.1
20260503020401 7 341 1.6 4.8 0.00 0.00 0.00 62 1016.0
20260503015857 6 18 3.2 4.8 0.00 0.00 0.00 61 1016.1
20260503015354 7 103 1.6 3.2 0.00 0.00 0.00 62 1016.2
20260503014850 7 102 1.6 4.8 0.00 0.00 0.00 60 1015.9
20260503014348 7 102 3.2 3.2 0.00 0.00 0.00 60 1015.9
20260503013845 7 103 1.6 4.8 0.00 0.00 0.00 60 1015.9
20260503013342 7 89 3.2 3.2 0.00 0.00 0.00 58 1015.7
20260503012839 7 78 0.0 3.2 0.00 0.00 0.00 58 1015.6
20260503012337 7 78 0.0 3.2 0.00 0.00 0.00 58 1015.5
20260503011834 8 127 1.6 4.8 0.00 0.00 0.00 57 1015.5
20260503011330 8 32 1.6 4.8 0.00 0.00 0.00 55 1015.4
20260503010827 8 23 1.6 6.4 0.00 0.00 0.00 53 1015.2
20260503010324 8 24 1.6 4.8 0.00 0.00 0.00 52 1015.2
20260503005821 8 33 3.2 6.4 0.00 0.00 0.00 51 1015.2
20260503005318 8 348 6.4 6.4 0.00 0.00 0.00 51 1015.2
20260503004814 8 27 4.8 6.4 0.00 0.00 0.00 51 1015.1
20260503004312 8 39 1.6 3.2 0.00 0.00 0.00 52 1014.9
20260503003810 8 349 1.6 9.7 0.00 0.00 0.00 52 1014.8
20260503003306 9 51 1.6 4.8 0.00 0.00 0.00 51 1014.5
20260503002803 9 44 0.0 3.2 0.00 0.00 0.00 51 1014.6
20260503002300 9 335 9.7 12.9 0.00 0.00 0.00 49 1014.6
20260503001756 9 349 0.0 12.9 0.00 0.00 0.00 50 1014.5
20260503001253 9 357 1.6 3.2 0.00 0.00 0.00 52 1014.3
20260503000751 9 60 3.2 6.4 0.00 0.00 0.00 49 1014.6
20260503000248 9 115 3.2 11.3 0.00 0.00 0.00 49 1014.4
20260502235745 9 82 3.2 9.7 0.00 0.00 0.00 48 1014.2
20260502235243 10 356 4.8 14.5 0.00 0.00 0.00 49 1014.1
20260502234738 10 51 1.6 4.8 0.00 0.00 0.00 49 1014.0
20260502234236 10 48 1.6 4.8 0.00 0.00 0.00 48 1013.9
20260502233732 10 19 4.8 6.4 0.00 0.00 0.00 48 1014.1
20260502233229 10 12 12.9 16.1 0.00 0.00 0.00 48 1013.7
20260502232724 10 23 4.8 12.9 0.00 0.00 0.00 47 1013.7
20260502232222 10 18 1.6 4.8 0.00 0.00 0.00 49 1013.9
20260502231718 10 15 3.2 4.8 0.00 0.00 0.00 47 1013.9
20260502231216 10 330 1.6 4.8 0.00 0.00 0.00 50 1013.9
20260502230715 10 13 0.0 6.4 0.00 0.00 0.00 46 1013.9
20260502230213 10 2 4.8 6.4 0.00 0.00 0.00 45 1013.8
20260502225708 10 347 1.6 3.2 0.00 0.00 0.00 45 1013.5
20260502225205 10 330 0.0 9.7 0.00 0.00 0.00 45 1013.6
20260502224702 11 54 1.6 3.2 0.00 0.00 0.00 44 1013.5
20260502224159 10 310 6.4 11.3 0.00 0.00 0.00 44 1013.7
20260502223656 11 359 3.2 4.8 0.00 0.00 0.00 45 1013.4
20260502223154 11 9 6.4 20.9 0.00 0.00 0.00 44 1013.5
20260502222652 11 341 3.2 6.4 0.00 0.00 0.00 43 1013.7
20260502222148 11 32 6.4 17.7 0.00 0.00 0.00 42 1013.5
20260502221643 11 339 3.2 4.8 0.00 0.00 0.00 39 1013.4
20260502221141 11 297 0.0 1.6 0.00 0.00 0.00 41 1013.3
20260502220637 11 320 3.2 4.8 0.00 0.00 0.00 40 1013.3
20260502220133 11 310 4.8 12.9 0.00 0.00 0.00 40 1013.4
20260502215631 11 329 6.4 9.7 0.00 0.00 0.00 40 1013.3
20260502215127 11 23 3.2 6.4 0.00 0.00 0.00 39 1013.4
20260502214625 11 326 8.0 14.5 0.00 0.00 0.00 40 1013.2
20260502214122 11 328 3.2 11.3 0.00 0.00 0.00 40 1013.4
20260502213619 11 35 1.6 4.8 0.00 0.00 0.00 40 1013.3
20260502213116 11 335 11.3 14.5 0.00 0.00 0.00 39 1013.2
20260502212615 11 329 1.6 11.3 0.00 0.00 0.00 39 1013.2
20260502212113 11 330 9.7 17.7 0.00 0.00 0.00 40 1013.3
20260502211608 11 296 11.3 14.5 0.00 0.00 0.00 39 1013.2
20260502211105 11 319 16.1 22.5 0.00 0.00 0.00 38 1013.3
20260502210603 11 279 6.4 14.5 0.00 0.00 0.00 38 1013.2
20260502210059 11 309 8.0 11.3 0.00 0.00 0.00 40 1013.2
20260502205556 11 329 1.6 1.6 0.00 0.00 0.00 40 1013.1
20260502205053 12 332 6.4 6.4 0.00 0.00 0.00 40 1013.2
20260502204550 12 316 3.2 9.7 0.00 0.00 0.00 41 1013.5
20260502204048 11 331 4.8 11.3 0.00 0.00 0.00 40 1013.1
20260502203544 11 345 9.7 17.7 0.00 0.00 0.00 40 1013.4
20260502203042 11 358 16.1 20.9 0.00 0.00 0.00 40 1013.3
20260502202537 11 5 11.3 16.1 0.00 0.00 0.00 40 1013.3
20260502202036 11 347 6.4 11.3 0.00 0.00 0.00 41 1013.2
20260502201531 11 356 12.9 24.1 0.00 0.00 0.00 40 1013.3
20260502201028 12 339 8.0 9.7 0.00 0.00 0.00 39 1013.1
20260502200524 12 91 1.6 6.4 0.00 0.00 0.00 41 1013.3